Content
SEND FEEDBACK

Daily
Averages
Monthly
Summary
Canada

TRURO, NOVA SCOTIA


Home > North America > Canada > Nova Scotia
Elevation: 131 feet     Latitude: 45 22N     Longitude: 63 16W

WEATHER
 
SELECT A DAY
Number of Records: 97,203;   Date Range: 6/19/04 - 8/20/14
 
SHARE

PRINT THIS DATA

[ ← Previous Day ]
WEATHER ALMANAC - JANUARY 31, 2013
[ Next Day → ]
[ °C ]   °F
Weather ElementAverageHighLow
Temperature48.9 °F54.3 °F (3:00 pm)38.7 °F (11:00 pm)
Dewpoint44.8 °F51.6 °F (4:00 pm)31.8 °F (11:00 pm)
Humidity85.4 %95 % (1:00 am)58 % (8:00 pm)
Barometer29.30 in29.60 in (1:00 am)28.98 in (4:00 pm)
Wind Speed19.7 mph33.4 mph (3:00 pm)
Wind Gust47.2 mph (3:00 pm)
Weather ElementAverage
Wind DirectionSSW (208.5 °)

Weather ElementTotal
Precipitation0.04 in
Heating Degree Days18.5 (Base 65)
Averaged from 27 records on January 31, 2013
WEATHER CONDITIONS BREAKOUT
WIND DIRECTION BREAKOUT
WEATHER BY HOUR - JANUARY 31, 2013
[ °C ]   °F
Local TimeTemperatureDewpointHumidityBarometerVisibilityWind DirectionWind SpeedGust SpeedPrecipitationEventsConditions
1:00 AM46.8 °F45.3 °F95 %29.60 inSSW (200°)11.5 mph
2:00 AM48.0 °F47.0 °F94 %29.58 inSSW (210°)17.3 mph
2:00 AM48.4 °F46.8 °F94 %29.58 inSSW (210°)17.3 mph
3:00 AM48.2 °F46.6 °F94 %29.57 inSSW (200°)9.2 mph
4:00 AM48.6 °F46.9 °F94 %29.54 inSouth (190°)13.8 mph19.6 mph
5:00 AM49.1 °F47.5 °F94 %29.53 inSouth (190°)15.0 mph
6:00 AM50.0 °F48.0 °F93 %29.52 inSSW (200°)15.0 mph
7:00 AM49.8 °F47.7 °F92 %29.50 inSouth (190°)12.7 mph
8:00 AM50.0 °F47.0 °F87 %29.47 inSouth (180°)11.5 mph
8:00 AM49.8 °F47.3 °F91 %29.47 inSouth (180°)11.5 mph
9:00 AM49.6 °F47.8 °F94 %29.42 inSSW (200°)12.7 mph20.7 mph
10:00 AM50.7 °F47.8 °F90 %29.37 inSSW (210°)24.2 mph35.7 mph
11:00 AM51.8 °F48.2 °F88 %29.34 inSSW (210°)29.9 mph41.4 mph
12:00 PM51.4 °F48.4 °F89 %29.31 inSSW (210°)28.8 mph41.4 mph
1:00 PM53.4 °F49.1 °F85 %29.21 inSSW (200°)27.6 mph40.3 mph
2:00 PM54.0 °F50.0 °F81 %29.12 inSSW (200°)27.6 mph
2:00 PM53.6 °F49.8 °F87 %29.12 inSSW (200°)27.6 mph44.9 mph
3:00 PM54.3 °F50.4 °F86 %29.03 inSSW (200°)33.4 mph47.2 mph
4:00 PM54.1 °F51.6 °F91 %28.98 inSSW (200°)32.2 mph47.2 mph0.04 in
5:00 PM52.3 °F48.2 °F86 %29.02 inSSW (210°)24.2 mph32.2 mph
6:00 PM51.1 °F43.2 °F74 %29.03 inSW (220°)23.0 mph32.2 mph
7:00 PM48.2 °F39.4 °F72 %29.07 inSW (230°)19.6 mph25.3 mph
8:00 PM44.0 °F34.0 °F58 %29.11 inWSW (250°)21.9 mph
8:00 PM43.5 °F34.2 °F70 %29.11 inWSW (250°)21.9 mph33.4 mph
9:00 PM42.1 °F33.8 °F72 %29.12 inSW (220°)16.1 mph
10:00 PM39.4 °F32.9 °F78 %29.14 inWSW (250°)13.8 mph20.7 mph
11:00 PM38.7 °F31.8 °F76 %29.16 inSW (220°)11.5 mph18.4 mph
Hourly data recorded from CZDB, located miles away from Truro, Nova Scotia







STORIES FROM OUR PARTNERS